Location: Makakahi
(40.6833°S, 175.6000°E)
Time: 18:52:54
(UTC+00:00)

FENGYUN 1C DEB - Pass Details

Date: 12 February 2026
Orbit: 839 x 906 km, 98.9° (Epoch: 9 March)

Event Time Altitude Azimuth Distance (km) Brightness Sun altitude
Rises 10:46:39 0° 185° (S) 3,443 ? -30.5°
Reaches altitude 10° 10:50:06 10° 207° (SSW) 2,508 ? -30.8°
Maximum altitude 10:53:01 15° 239° (WSW) 2,189 ? -31.1°
Drops below altitude 10° 10:55:58 10° 271° (W) 2,514 ? -31.3°
Sets 10:59:26 0° 294° (WNW) 3,456 ? -31.6°
